Wind_Speed
9 10 11 12 14 17 17 17 18 18 19 20 21 21 21 21 20 20 20 20 20 21 21 22 23 24 24 24 24 25 25 26 27 28 28 28 28 29 29 30 30 30 30
6 7 8 11 13 14 16 16 17 18 19 20 21 21 22 22 22 22 22 22 22 22 23 24 25 26 26 27 27 27 28 28 29 30 31 32 32 33 33 34 34 34 34
4 6 7 9 12 13 13 14 15 17 18 19 20 21 21 22 22 22 22 22 23 24 25 25 26 27 28 28 29 29 30 31 32 32 34 35 35 36 36 37 37 37 37
5 6 7 9 10 10 11 12 14 16 17 19 20 20 21 21 22 23 23 24 24 25 26 27 27 28 29 30 30 32 33 34 35 35 36 37 39 39 39 39 40 41 41
5 5 6 8 9 10 11 12 13 15 16 18 19 19 20 21 22 23 24 25 26 26 27 27 28 29 30 31 32 33 35 36 37 38 39 39 40 41 42 43 43 44 45
8 8 9 10 11 12 13 14 14 15 16 18 19 20 20 20 22 24 25 26 27 27 28 28 29 30 32 33 34 36 37 38 40 41 42 43 44 45 46 47 48 48 48
11 12 12 12 13 14 15 16 16 17 18 18 19 19 21 22 23 25 26 27 28 30 30 31 32 33 34 36 38 38 40 42 43 44 45 46 47 48 49 50 51 51 51
13 13 14 15 16 17 17 18 19 19 20 21 21 23 23 24 25 26 27 28 30 31 32 34 35 36 38 38 40 41 42 43 44 46 47 48 50 51 52 53 53 54 54
16 16 17 18 18 18 19 20 21 21 22 23 24 26 26 27 27 28 29 30 32 33 34 36 37 38 39 40 41 43 44 45 47 48 49 51 52 53 54 56 56 57 58
19 19 20 20 20 21 22 23 24 25 26 27 27 28 29 29 30 31 32 33 34 36 37 38 40 41 42 43 45 46 47 49 50 51 53 54 55 57 58 60 61 62 62
23 23 24 24 24 25 25 26 27 28 29 29 29 30 31 31 32 33 35 36 37 38 39 40 41 42 44 45 47 48 50 52 53 54 56 57 59 61 62 63 64 65 66
27 27 28 28 28 29 29 29 30 32 32 33 33 33 34 34 35 36 37 38 39 40 41 42 44 45 46 48 50 52 53 55 57 59 60 62 63 64 65 66 66 66 66
30 30 30 31 31 32 32 33 34 35 35 35 35 35 35 36 37 38 39 40 41 42 43 45 47 48 50 51 53 55 57 58 60 61 62 63 64 65 65 64 64 63 63
32 32 33 33 33 33 34 35 36 36 35 35 35 34 36 37 39 39 40 41 42 44 46 48 49 51 53 55 56 57 58 59 60 60 61 61 61 61 60 60 59 59 59
32 33 33 33 33 34 34 34 33 33 33 33 34 35 36 37 39 40 42 44 45 47 49 50 52 54 55 56 57 58 59 59 60 59 59 59 58 58 57 56 55 54 53
32 32 32 33 32 32 32 31 31 32 33 33 34 36 38 40 41 43 45 46 48 50 51 52 54 55 56 57 57 57 58 57 57 56 56 55 54 53 52 51 50 49 49
31 31 30 30 29 28 28 29 31 33 34 35 36 38 41 42 44 45 47 49 50 51 53 54 55 55 55 55 55 54 54 53 53 52 51 50 49 48 47 46 45 45 45
28 28 28 28 29 29 30 31 32 33 35 37 39 41 42 44 46 48 49 50 51 52 53 53 53 53 52 51 51 50 50 49 48 47 46 46 45 44 43 42 41 41 40
26 26 27 28 29 30 31 33 34 36 37 39 41 43 44 46 47 48 49 50 51 51 51 51 51 50 49 48 47 47 46 45 44 43 42 42 41 40 40 39 38 38 37
24 26 27 28 30 32 34 35 37 39 40 41 42 44 46 47 48 48 48 48 48 48 48 47 46 46 45 44 44 44 43 42 41 40 39 38 38 37 37 36 35 35 35
24 26 28 30 32 34 36 37 39 41 43 44 45 46 47 48 48 47 46 46 46 45 44 44 43 43 42 42 41 40 39 38 38 37 37 37 36 35 34 34 33 33 33
26 28 29 32 33 35 37 39 41 43 44 45 46 45 46 46 46 45 45 44 43 42 42 41 41 40 40 39 39 38 37 36 36 36 35 35 35 35 33 32 32 31 30
27 29 31 33 35 37 39 41 42 43 44 44 45 44 43 43 43 42 42 41 40 40 40 40 39 39 38 38 37 37 36 36 35 35 34 34 34 33 32 31 30 30 29
30 32 33 35 37 38 39 40 41 42 42 42 41 41 40 40 40 40 39 39 39 38 38 38 38 37 37 36 36 35 34 34 34 34 33 33 32 31 30 29 29 29 28
32 33 34 36 37 38 38 38 38 38 38 38 38 38 38 38 38 37 37 37 36 36 35 35 35 35 34 34 34 34 34 33 33 32 32 31 30 30 29 28 28 27 27
32 33 34 35 35 35 34 34 34 34 34 34 35 35 35 35 35 34 34 33 33 33 33 33 33 33 33 33 32 32 32 32 32 31 30 30 29 29 29 28 27 27 26
Wind_Direction
228 224 225 220 220 221 224 226 230 233 236 238 238 240 243 245 248 251 254 257 259 261 263 266 269 270 272 273 275 277 279 281 282 283 283 283 283 283 283 284 284 284 285
226 221 222 222 223 225 227 231 235 238 239 239 240 242 245 247 250 253 256 259 261 263 265 268 270 272 273 273 275 276 278 280 281 282 283 283 283 283 284 284 284 283 283
244 232 227 225 226 229 232 236 236 238 239 241 244 246 249 250 252 254 258 261 263 265 268 271 273 275 275 275 276 277 279 280 281 282 283 284 284 283 284 284 284 283 282
267 253 240 233 232 237 242 245 244 244 247 248 248 250 252 251 253 255 259 263 266 269 271 274 275 276 276 277 277 278 279 281 282 283 284 284 284 284 284 284 284 283 283
276 268 257 249 246 249 252 255 257 255 255 254 253 254 255 256 258 259 262 267 271 274 275 276 277 279 279 279 279 279 281 282 282 283 284 284 284 284 284 284 284 283 283
272 268 260 257 257 257 258 261 262 260 261 260 260 261 261 261 263 264 266 270 273 275 277 278 279 280 281 281 281 281 281 282 283 283 284 284 285 285 284 284 283 283 282
272 269 266 264 263 262 263 265 265 265 264 263 263 263 265 268 267 267 269 272 274 277 278 279 280 282 283 284 284 283 282 283 283 284 285 285 285 285 285 284 284 284 283
280 275 271 268 267 266 269 270 271 268 267 266 266 267 269 271 271 271 273 275 277 279 280 282 283 283 284 284 285 285 285 284 284 285 286 286 286 287 286 285 285 285 284
282 281 278 275 272 271 272 273 272 271 270 270 270 270 271 273 275 276 277 278 280 282 283 284 285 285 286 286 286 287 287 287 287 286 286 287 287 287 287 287 286 286 285
282 283 283 279 276 274 274 274 274 273 273 272 273 273 274 275 277 278 279 280 281 283 285 285 286 287 288 288 288 289 289 289 289 289 288 288 287 287 287 287 287 286 286
280 282 281 280 277 275 274 275 277 276 275 273 274 274 275 277 278 279 281 284 285 286 286 287 287 288 288 288 289 289 290 290 290 290 290 290 289 288 288 287 287 286 285
277 280 280 278 277 276 275 275 276 276 275 273 275 277 277 278 280 281 283 285 287 287 288 289 290 290 291 291 291 291 291 291 291 291 290 290 289 289 288 288 287 287 286
275 278 280 278 276 277 276 275 276 276 275 274 275 278 278 280 282 283 284 286 288 289 289 290 291 292 292 293 293 292 292 292 292 291 291 290 290 289 289 288 288 287 286
274 277 278 276 276 277 276 276 277 276 274 275 278 279 281 283 285 286 288 290 292 292 292 293 293 293 293 294 294 294 293 293 293 292 292 291 291 291 290 290 289 288 288
273 276 278 277 277 276 276 275 274 276 278 280 282 284 285 287 289 291 292 293 292 292 293 293 294 294 295 295 295 295 295 295 294 294 293 292 292 291 291 290 290 289 289
272 274 275 275 276 277 276 276 278 281 284 285 287 289 290 292 293 294 294 294 294 295 295 295 296 296 296 297 297 297 297 296 296 295 294 294 293 292 292 291 291 290 290
270 272 274 278 281 280 280 282 284 287 288 289 291 293 294 295 296 297 297 297 298 298 297 298 298 298 298 298 298 298 298 297 297 296 295 295 294 294 293 292 292 292 292
272 277 280 282 281 281 283 286 288 291 293 294 296 297 297 298 298 299 299 298 299 299 299 299 299 299 299 298 298 298 298 298 298 297 297 296 296 295 294 293 293 294 294
277 279 281 283 285 287 290 292 294 295 297 297 298 298 299 299 299 299 299 300 300 300 300 300 300 300 299 299 299 299 299 299 299 298 298 297 297 296 296 295 295 295 296
282 285 287 290 292 294 296 297 298 299 300 299 299 299 299 299 299 300 300 300 300 301 301 301 301 300 300 300 300 300 299 299 299 299 299 299 299 299 298 298 297 297 298
290 292 293 294 296 297 299 300 301 301 301 301 301 301 301 301 301 302 302 302 301 301 301 302 302 302 302 301 301 301 299 299 299 299 299 299 300 300 299 299 300 300 300
294 295 297 299 301 302 303 304 304 303 303 303 303 303 303 303 303 302 302 302 302 302 302 303 303 303 303 302 302 301 300 299 299 300 299 299 299 300 299 300 301 302 302
302 302 303 304 305 305 306 306 305 305 305 304 304 304 304 304 304 303 303 303 303 303 303 303 303 304 303 303 303 301 300 300 300 300 300 300 300 299 299 299 300 302 302
306 307 307 307 307 307 307 307 307 306 306 306 306 306 306 306 305 305 304 304 304 304 304 304 304 304 304 304 303 303 301 300 300 299 300 301 300 299 298 298 299 300 301
308 308 308 308 308 309 309 309 309 309 309 310 310 309 309 308 307 307 306 306 306 306 306 306 306 306 305 304 304 304 303 302 301 300 300 300 300 299 299 298 298 299 299
309 310 310 311 311 311 312 313 314 314 314 314 313 312 312 311 311 310 310 309 309 308 308 308 308 308 307 306 306 305 305 305 303 302 301 300 299 298 298 298 297 298 298
Height
5823 5824 5825 5827 5829 5832 5835 5837 5840 5842 5844 5847 5849 5851 5853 5855 5856 5857 5858 5859 5860 5860 5861 5861 5861 5861 5862 5862 5861 5861 5861 5861 5860 5859 5859 5859 5858 5857 5857 5856 5855 5855 5854
5822 5823 5824 5826 5828 5830 5832 5834 5836 5838 5840 5843 5845 5847 5849 5850 5852 5853 5854 5854 5855 5855 5856 5856 5856 5856 5856 5856 5855 5855 5855 5854 5854 5853 5852 5851 5851 5849 5849 5848 5847 5846 5846
5822 5823 5824 5825 5826 5828 5830 5832 5833 5835 5837 5839 5841 5842 5844 5845 5846 5847 5848 5849 5850 5850 5850 5850 5850 5850 5849 5849 5848 5848 5847 5847 5846 5845 5844 5842 5842 5841 5840 5839 5837 5836 5836
5822 5822 5823 5824 5825 5826 5827 5829 5831 5832 5833 5835 5836 5837 5838 5840 5841 5842 5843 5844 5844 5844 5844 5844 5844 5843 5842 5842 5841 5841 5840 5839 5838 5837 5835 5834 5832 5831 5830 5829 5828 5826 5825
5821 5822 5822 5823 5824 5825 5826 5827 5828 5829 5830 5831 5832 5833 5833 5835 5836 5836 5837 5838 5838 5838 5837 5837 5837 5836 5835 5834 5834 5833 5831 5830 5829 5827 5826 5824 5822 5821 5819 5818 5816 5815 5813
5820 5821 5821 5822 5822 5823 5824 5824 5825 5826 5826 5827 5827 5828 5829 5829 5830 5831 5831 5831 5831 5831 5830 5830 5829 5828 5827 5826 5825 5823 5822 5821 5819 5817 5815 5813 5811 5809 5807 5805 5803 5802 5801
5818 5818 5819 5819 5819 5820 5820 5821 5822 5822 5822 5823 5823 5824 5824 5824 5824 5825 5825 5824 5824 5823 5823 5822 5821 5820 5818 5817 5815 5813 5812 5810 5808 5806 5804 5801 5799 5797 5794 5792 5789 5787 5785
5815 5815 5816 5816 5816 5816 5817 5817 5817 5817 5817 5818 5818 5818 5818 5818 5818 5818 5817 5817 5816 5815 5814 5813 5812 5810 5808 5806 5804 5803 5800 5798 5796 5793 5791 5788 5785 5782 5779 5777 5774 5772 5770
5812 5812 5811 5812 5812 5812 5812 5812 5812 5812 5812 5812 5812 5812 5811 5811 5810 5810 5809 5809 5807 5806 5805 5803 5802 5800 5798 5796 5793 5791 5788 5785 5782 5780 5777 5774 5770 5767 5763 5761 5758 5755 5753
5807 5807 5807 5807 5807 5807 5807 5807 5807 5806 5806 5806 5805 5804 5804 5803 5803 5802 5801 5799 5798 5797 5795 5793 5791 5789 5786 5783 5781 5778 5775 5772 5768 5765 5762 5758 5754 5751 5747 5744 5740 5737 5734
5802 5802 5802 5801 5801 5801 5800 5800 5800 5800 5799 5798 5798 5797 5796 5795 5794 5793 5791 5790 5788 5786 5784 5782 5780 5777 5774 5771 5768 5764 5761 5757 5754 5750 5746 5742 5738 5734 5729 5725 5721 5717 5713
5796 5796 5795 5794 5794 5794 5793 5792 5792 5791 5791 5790 5789 5788 5787 5786 5785 5783 5781 5779 5777 5775 5772 5770 5767 5764 5761 5757 5754 5750 5746 5742 5738 5733 5729 5724 5720 5715 5710 5705 5701 5696 5691
5789 5789 5788 5787 5786 5786 5785 5784 5784 5783 5782 5781 5780 5779 5777 5776 5774 5773 5771 5768 5766 5763 5760 5757 5754 5750 5746 5743 5739 5734 5730 5725 5720 5715 5710 5705 5700 5695 5690 5685 5680 5675 5671
5781 5781 5780 5780 5778 5777 5777 5776 5775 5774 5772 5771 5771 5770 5768 5766 5764 5762 5760 5757 5754 5751 5747 5744 5740 5736 5732 5727 5722 5717 5712 5707 5702 5697 5691 5686 5680 5675 5670 5665 5661 5656 5653
5773 5773 5772 5771 5770 5769 5768 5767 5766 5765 5764 5763 5761 5760 5758 5756 5753 5751 5748 5745 5741 5737 5733 5729 5725 5720 5716 5710 5705 5700 5695 5689 5684 5678 5672 5667 5662 5657 5652 5647 5642 5638 5634
5766 5765 5764 5763 5762 5762 5761 5759 5758 5756 5755 5753 5751 5749 5747 5745 5741 5738 5735 5731 5727 5723 5718 5714 5709 5704 5698 5693 5688 5682 5676 5671 5665 5660 5654 5649 5644 5639 5635 5630 5626 5622 5618
5758 5757 5757 5756 5755 5754 5753 5751 5750 5748 5746 5744 5741 5738 5736 5732 5729 5725 5721 5717 5712 5707 5703 5697 5692 5687 5681 5676 5670 5665 5659 5654 5648 5643 5638 5633 5628 5624 5619 5615 5611 5607 5604
5750 5750 5750 5749 5748 5746 5745 5743 5741 5739 5737 5734 5731 5727 5723 5720 5716 5711 5707 5702 5697 5692 5687 5682 5676 5671 5665 5660 5654 5649 5644 5638 5633 5628 5623 5618 5614 5610 5606 5602 5598 5594 5591
5744 5743 5742 5741 5740 5738 5736 5734 5732 5729 5726 5723 5719 5715 5711 5707 5703 5698 5692 5687 5682 5677 5671 5666 5661 5655 5650 5645 5640 5634 5629 5624 5620 5615 5610 5606 5601 5597 5593 5589 5586 5582 5579
5737 5736 5734 5733 5731 5729 5726 5724 5721 5718 5715 5712 5708 5703 5698 5694 5689 5684 5679 5673 5667 5662 5657 5651 5646 5641 5636 5631 5626 5621 5616 5612 5607 5603 5598 5594 5590 5586 5582 5579 5575 5572 5568
5730 5728 5727 5725 5723 5720 5717 5714 5710 5706 5702 5698 5694 5689 5683 5678 5674 5669 5664 5659 5653 5648 5643 5638 5633 5628 5623 5618 5613 5609 5604 5600 5596 5592 5588 5584 5580 5576 5572 5569 5565 5561 5558
5723 5721 5719 5717 5714 5711 5707 5703 5699 5694 5689 5685 5680 5675 5669 5664 5659 5654 5649 5644 5639 5635 5630 5625 5620 5616 5611 5606 5602 5597 5593 5589 5585 5581 5577 5574 5570 5566 5563 5559 5556 5552 5549
5715 5713 5710 5707 5704 5700 5696 5692 5687 5682 5677 5672 5667 5662 5657 5651 5646 5641 5636 5632 5627 5623 5618 5613 5609 5604 5599 5595 5591 5587 5583 5579 5575 5571 5568 5564 5560 5557 5553 5550 5547 5544 5541
5707 5704 5701 5698 5694 5690 5685 5681 5676 5671 5665 5660 5655 5649 5644 5639 5634 5630 5625 5620 5616 5611 5607 5602 5598 5593 5589 5585 5580 5576 5572 5568 5565 5561 5558 5554 5551 5547 5544 5542 5539 5536 5533
5698 5695 5691 5688 5683 5679 5675 5670 5665 5660 5654 5649 5644 5639 5633 5629 5624 5619 5614 5610 5605 5601 5596 5592 5587 5583 5579 5575 5570 5566 5562 5558 5555 5551 5548 5545 5542 5539 5536 5533 5531 5528 5525
5689 5686 5682 5678 5674 5669 5665 5660 5655 5650 5645 5640 5635 5629 5624 5619 5614 5609 5605 5600 5596 5591 5587 5582 5578 5574 5569 5565 5561 5557 5553 5549 5545 5542 5538 5536 5533 5530 5528 5525 5523 5520 5518